User: anonymous   Login
Location: Radomski Observatory
(40.2854°N, 79.5145°W)
Time: 15:56:38
(UTC-04:00)
Language:

Cosmos 1072 Rocket - Orbit

View from above orbital plane
View from above orbital plane
View from above satellite
View from above satellite

Ground track
Ground track

The orbit data is extracted from the following two-line orbital elements,

1 11239U 79003B   14294.49773406  .00000194  00000-0  18450-3 0  3826
2 11239 082.9369 088.2993 0040316 219.7763 198.4048 13.75742762794528
Epoch (UTC): 21 October 2014 11:56:44
Eccentricity: 0.0040316
inclination: 82.9369°
perigee height: 949 km
apogee height: 1008 km
right ascension of ascending node: 88.2993°
argument of perigee: 219.7763°
revolutions per day: 13.75742762
mean anomaly at epoch: 198.4048°
orbit number at epoch: 79452

The dashed part of the orbit path shows where the satellite is in the earth's shadow,  

DLR